BEIDOU-3 M6

Last updated on May 15, 2019, 3:07 a.m. UTC

1 43208U 18018B   19134.47662884  .00000096  00000-0  00000+0 0  9992
2 43208  55.0590 149.7982 0010768 292.7842  67.1515  1.86231886  8498
UTC
Height (km)
Latitude
Longitude
Inclination
Orbital Period
UTC large
Height (km)
Speed (km/s)
/
Latitude / Longitude
Inclination (degrees)
Orbital Period (minutes)
Azimuth
Elevation
Range (km)
Doppler Factor
iOS Compass Heading
iOS Angle

Next 30 passes for location: Hong Kong

Rise time Rise Azimuth (degrees) Set time Set Azimuth (degrees) Duration Max altitude (degrees)

No matching passes for this satellites